^^
Datos históricos de la estación: Murcia-Puente Tocinos
Diario Informe para Abril 19, 2019 Unidades:  Métrico    Inglés   Ambas
Diario Semanal Mensual Anual Configurable
  Máximo: Mínimo: Media:
Temperatura: 14.7 °C 12.1 °C 13.4 °C
Punto de rocio: 13.0 °C 10.7 °C 11.8 °C
Humedad: 96% 77% 90%
Velocidad viento: 12.2km/h 0.0km/h 4km/h
Racha viento: 20.9km/h - -
Viento- - SW
Presión: 1015.0 hPa 1012.1 hPa -
Precipitación: 28.2 mm    
Historical Graphs
 
 
Tabla de datos para Abril 19, 2019
Hora Temperatura Punto de rocio Presión Viento Velocidad viento Racha viento Humedad Intensidad lluvia(por hora) Nubes
00:00 14.7 °C 10.7 °C 1012.5 hPa SSW 1.6 km/h 6.4 km/h 77% 0.0 mm CLR
00:05 14.6 °C 10.8 °C 1012.6 hPa North 2.3 km/h 5.6 km/h 78% 0.0 mm CLR
00:10 14.5 °C 10.7 °C 1012.6 hPa North 2.9 km/h 5.6 km/h 78% 0.0 mm CLR
00:15 14.4 °C 10.8 °C 1012.6 hPa NNW 2.9 km/h 5.6 km/h 79% 0.0 mm CLR
00:20 14.3 °C 10.9 °C 1012.7 hPa NNW 2.9 km/h 3.7 km/h 80% 0.0 mm CLR
00:25 14.2 °C 10.8 °C 1012.7 hPa NNW 2.9 km/h 5.6 km/h 80% 0.0 mm CLR
00:30 14.1 °C 10.7 °C 1012.7 hPa NNW 2.3 km/h 3.7 km/h 80% 0.0 mm CLR
00:35 14.1 °C 10.7 °C 1012.6 hPa WNW 2.3 km/h 5.8 km/h 80% 0.0 mm CLR
00:40 14.1 °C 10.7 °C 1012.6 hPa NW 3.2 km/h 7.4 km/h 80% 0.0 mm CLR
00:45 14.1 °C 10.9 °C 1012.6 hPa NW 3.2 km/h 3.9 km/h 81% 0.0 mm CLR
00:50 14.1 °C 10.9 °C 1012.7 hPa NW 3.2 km/h 7.4 km/h 81% 0.0 mm CLR
00:55 14.1 °C 10.9 °C 1012.7 hPa NW 3.2 km/h 6.9 km/h 81% 0.0 mm CLR
01:00 14.2 °C 11.0 °C 1012.7 hPa NNW 3.2 km/h 8.0 km/h 81% 0.0 mm CLR
01:05 14.2 °C 11.0 °C 1012.5 hPa NNE 3.9 km/h   81% 0.0 mm CLR
01:10 14.2 °C 11.0 °C 1012.5 hPa NNE 2.9 km/h   81% 0.0 mm CLR
01:15 14.2 °C 11.0 °C 1012.5 hPa NNE 2.9 km/h 3.7 km/h 81% 0.0 mm CLR
01:20 14.2 °C 11.0 °C 1012.6 hPa Calm   3.7 km/h 81% 0.0 mm CLR
01:25 14.2 °C 11.0 °C 1012.6 hPa Calm   2.3 km/h 81% 0.0 mm CLR
01:30 14.2 °C 11.0 °C 1012.6 hPa Calm     81% 0.0 mm CLR
01:35 14.3 °C 10.9 °C 1012.8 hPa Calm   3.7 km/h 80% 0.0 mm CLR
01:40 14.2 °C 10.8 °C 1012.8 hPa Calm   7.4 km/h 80% 0.0 mm CLR
01:45 14.1 °C 10.9 °C 1012.8 hPa Calm   5.6 km/h 81% 0.0 mm CLR
01:50 14.1 °C 10.9 °C 1012.9 hPa NNE 3.9 km/h 5.6 km/h 81% 0.0 mm CLR
01:55 14.0 °C 10.8 °C 1012.9 hPa NNE 3.9 km/h 5.8 km/h 81% 0.0 mm CLR
02:00 13.9 °C 10.7 °C 1012.9 hPa NNE 3.2 km/h 6.4 km/h 81% 0.0 mm CLR
02:05 13.9 °C 10.9 °C 1012.7 hPa NNE 3.9 km/h   82% 0.0 mm CLR
02:10 13.9 °C 10.9 °C 1012.7 hPa Calm     82% 0.0 mm CLR
02:15 13.9 °C 10.9 °C 1012.7 hPa Calm     82% 0.0 mm CLR
02:20 13.9 °C 10.9 °C 1012.8 hPa Calm     82% 0.0 mm CLR
02:25 13.9 °C 10.9 °C 1012.8 hPa Calm     82% 0.0 mm CLR
02:30 14.0 °C 10.8 °C 1012.8 hPa ESE 2.3 km/h 7.4 km/h 81% 0.0 mm CLR
02:35 14.0 °C 10.8 °C 1013.0 hPa ESE 2.3 km/h   81% 0.0 mm CLR
02:40 14.0 °C 10.8 °C 1013.0 hPa Calm   3.7 km/h 81% 0.0 mm CLR
02:45 14.0 °C 10.8 °C 1013.0 hPa Calm     81% 0.0 mm CLR
02:50 13.9 °C 10.7 °C 1012.9 hPa Calm     81% 0.0 mm CLR
02:55 14.0 °C 10.8 °C 1012.9 hPa Calm   3.9 km/h 81% 0.0 mm CLR
03:00 14.0 °C 10.8 °C 1012.9 hPa Calm   3.2 km/h 81% 0.0 mm CLR
03:05 14.0 °C 10.8 °C 1012.5 hPa Calm   1.9 km/h 81% 0.0 mm CLR
03:10 13.9 °C 10.7 °C 1012.5 hPa Calm   3.7 km/h 81% 0.0 mm CLR
03:15 13.9 °C 10.9 °C 1012.5 hPa Calm   3.7 km/h 82% 0.0 mm CLR
03:20 13.9 °C 10.9 °C 1012.5 hPa NNW 2.3 km/h 7.4 km/h 82% 0.0 mm CLR
03:25 13.8 °C 10.8 °C 1012.5 hPa NNW 2.3 km/h 7.4 km/h 82% 0.0 mm CLR
03:30 13.7 °C 10.9 °C 1012.5 hPa NW 3.2 km/h 7.4 km/h 83% 0.0 mm CLR
03:35 13.6 °C 10.8 °C 1012.6 hPa NW 3.2 km/h 3.7 km/h 83% 0.0 mm CLR
03:40 13.6 °C 10.9 °C 1012.6 hPa NW 3.2 km/h 3.7 km/h 84% 0.0 mm CLR
03:45 13.6 °C 10.9 °C 1012.6 hPa NNE 3.2 km/h 7.4 km/h 84% 0.0 mm CLR
03:50 13.5 °C 11.0 °C 1012.4 hPa NNE 3.2 km/h   85% 0.0 mm CLR
03:55 13.5 °C 11.0 °C 1012.4 hPa NNE 3.2 km/h 3.7 km/h 85% 0.0 mm CLR
04:00 13.5 °C 11.0 °C 1012.4 hPa Calm   4.8 km/h 85% 0.0 mm CLR
04:05 13.5 °C 11.2 °C 1012.3 hPa Calm   5.6 km/h 86% 0.3 mm RA
04:10 13.4 °C 11.1 °C 1012.3 hPa NE 3.9 km/h 7.4 km/h 86% 0.3 mm RA
04:15 13.3 °C 11.0 °C 1012.3 hPa NE 3.9 km/h 11.1 km/h 86% 0.3 mm
04:20 13.2 °C 11.1 °C 1012.4 hPa NNE 6.4 km/h 7.4 km/h 87% 0.3 mm CLR
04:25 13.2 °C 11.1 °C 1012.4 hPa NNW 6.4 km/h 3.7 km/h 87% 0.3 mm CLR
04:30 13.2 °C 11.3 °C 1012.4 hPa NNW 3.9 km/h 7.4 km/h 88% 0.3 mm CLR
04:35 13.2 °C 11.3 °C 1012.2 hPa NNW 3.9 km/h 7.4 km/h 88% 0.3 mm CLR
04:40 13.2 °C 11.4 °C 1012.2 hPa NNW 3.9 km/h   89% 0.3 mm CLR
04:45 13.2 °C 11.4 °C 1012.2 hPa NNW 3.9 km/h   89% 0.3 mm CLR
04:50 13.2 °C 11.4 °C 1012.4 hPa Calm     89% 0.3 mm CLR
04:55 13.2 °C 11.6 °C 1012.4 hPa Calm     90% 0.8 mm RA
05:00 13.2 °C 11.6 °C 1012.4 hPa Calm     90% 0.3 mm RA
05:05 13.2 °C 11.6 °C 1012.4 hPa Calm     90% 1.0 mm RA
05:10 13.1 °C 11.5 °C 1012.4 hPa Calm     90% 1.0 mm RA
05:15 13.1 °C 11.5 °C 1012.4 hPa Calm     90% 1.0 mm
05:20 13.0 °C 11.4 °C 1012.5 hPa Calm     90% 1.3 mm RA
05:25 13.1 °C 11.5 °C 1012.5 hPa Calm   7.4 km/h 90% 1.3 mm RA
05:30 13.1 °C 11.7 °C 1012.5 hPa NE 2.9 km/h 3.7 km/h 91% 1.3 mm CLR
05:35 13.1 °C 11.7 °C 1012.4 hPa SE 2.9 km/h 6.4 km/h 91% 1.8 mm RA
05:40 13.0 °C 11.6 °C 1012.4 hPa SSE 2.9 km/h 5.6 km/h 91% 1.8 mm RA
05:45 13.0 °C 11.6 °C 1012.4 hPa WNW 2.9 km/h 3.7 km/h 91% 2.3 mm RA
05:50 13.0 °C 11.6 °C 1012.4 hPa WNW 2.9 km/h 4.7 km/h 91% 2.3 mm RA
05:55 13.0 °C 11.6 °C 1012.4 hPa WNW 2.9 km/h 7.4 km/h 91% 2.5 mm RA
06:00 12.9 °C 11.4 °C 1012.4 hPa WNW 3.2 km/h 6.4 km/h 91% 0.0 mm RA
06:05 12.9 °C 11.6 °C 1012.4 hPa WNW 3.2 km/h 3.7 km/h 92% 2.5 mm RA
06:10 12.9 °C 11.6 °C 1012.4 hPa NW 2.3 km/h 5.6 km/h 92% 3.0 mm RA
06:15 12.9 °C 11.6 °C 1012.4 hPa NW 2.3 km/h 7.4 km/h 92% 3.0 mm RA
06:20 12.9 °C 11.8 °C 1012.4 hPa NW 3.9 km/h 5.6 km/h 93% 2.8 mm CLR
06:25 12.9 °C 11.8 °C 1012.4 hPa NW 3.9 km/h 1.9 km/h 93% 2.8 mm
06:30 12.9 °C 11.8 °C 1012.4 hPa NW 2.3 km/h 5.0 km/h 93% 3.0 mm RA
06:35 12.9 °C 11.8 °C 1012.1 hPa NNW 2.3 km/h 6.4 km/h 93% 2.5 mm RA
06:40 12.8 °C 11.7 °C 1012.1 hPa NNW 3.2 km/h 4.7 km/h 93% 2.5 mm CLR
06:45 12.8 °C 11.7 °C 1012.1 hPa NNW 3.2 km/h 5.8 km/h 93% 2.3 mm RA
06:50 12.8 °C 11.7 °C 1012.2 hPa NNE 3.2 km/h 7.4 km/h 93% 2.3 mm RA
06:55 12.8 °C 11.8 °C 1012.2 hPa ESE 3.2 km/h 9.3 km/h 94% 1.8 mm RA
07:00 12.9 °C 11.9 °C 1012.2 hPa ESE 3.2 km/h 8.0 km/h 94% 0.0 mm RA
07:05 12.9 °C 11.9 °C 1012.5 hPa SE 4.7 km/h 3.7 km/h 94% 1.8 mm RA
07:10 12.9 °C 11.9 °C 1012.5 hPa SE 3.2 km/h 3.7 km/h 94% 1.5 mm RA
07:15 12.9 °C 11.9 °C 1012.5 hPa SE 3.2 km/h   94% 1.5 mm RA
07:20 12.8 °C 11.8 °C 1012.4 hPa Calm   3.7 km/h 94% 1.8 mm RA
07:25 12.8 °C 11.8 °C 1012.4 hPa Calm   3.7 km/h 94% 2.0 mm RA
07:30 12.8 °C 11.8 °C 1012.4 hPa SE 2.3 km/h   94% 1.8 mm RA
07:35 12.7 °C 11.8 °C 1012.8 hPa SE 2.3 km/h 3.7 km/h 94% 2.0 mm RA
07:40 12.7 °C 11.8 °C 1012.8 hPa Calm   5.6 km/h 94% 2.0 mm RA
07:45 12.7 °C 11.8 °C 1012.8 hPa Calm     94% 2.0 mm RA
07:50 12.8 °C 12.0 °C 1013.0 hPa SE 2.3 km/h   95% 2.3 mm RA
07:55 12.8 °C 12.0 °C 1013.0 hPa SE 2.3 km/h 6.4 km/h 95% 2.3 mm RA
08:00 12.8 °C 11.8 °C 1013.0 hPa SE 3.2 km/h 8.0 km/h 94% 0.3 mm RA
08:05 12.8 °C 12.0 °C 1013.3 hPa SSE 2.9 km/h 7.4 km/h 95% 2.0 mm RA
08:10 12.8 °C 12.0 °C 1013.3 hPa SSE 4.7 km/h 7.4 km/h 95% 2.0 mm RA
08:15 12.8 °C 12.0 °C 1013.3 hPa SSE 4.7 km/h 7.4 km/h 95% 2.3 mm RA
08:20 12.8 °C 12.0 °C 1013.3 hPa SSW 5.0 km/h 9.3 km/h 95% 2.3 mm RA
08:25 12.8 °C 12.0 °C 1013.3 hPa SSW 5.0 km/h 9.3 km/h 95% 2.3 mm RA
08:29 12.9 °C 12.1 °C 1013.3 hPa SSW 6.4 km/h 9.3 km/h 95% 2.5 mm RA
08:35 12.9 °C 12.1 °C 1013.4 hPa SW 6.4 km/h 9.3 km/h 95% 2.3 mm RA
08:40 12.9 °C 12.1 °C 1013.4 hPa SW 5.0 km/h 9.3 km/h 95% 2.8 mm RA
08:45 12.9 °C 12.1 °C 1013.4 hPa SW 5.0 km/h 3.7 km/h 95% 2.8 mm RA
08:50 12.9 °C 12.1 °C 1013.6 hPa SSW 3.2 km/h 7.4 km/h 95% 2.8 mm RA
08:55 12.9 °C 12.1 °C 1013.6 hPa SSW 3.2 km/h 5.6 km/h 95% 2.8 mm RA
09:00 12.8 °C 12.0 °C 1013.6 hPa SSW 3.2 km/h 6.4 km/h 95% 0.0 mm RA
09:05 12.8 °C 12.0 °C 1013.8 hPa SSE 3.2 km/h 7.4 km/h 95% 2.8 mm RA
09:10 12.9 °C 12.1 °C 1013.8 hPa South 5.8 km/h 11.1 km/h 95% 2.8 mm RA
09:15 12.9 °C 12.1 °C 1013.8 hPa SSE 5.8 km/h 9.3 km/h 95% 2.8 mm RA
09:20 12.9 °C 12.1 °C 1013.9 hPa SSE 6.9 km/h 7.4 km/h 95% 2.8 mm RA
09:25 12.9 °C 12.1 °C 1013.9 hPa SSW 6.9 km/h 7.4 km/h 95% 2.5 mm RA
09:30 12.9 °C 12.1 °C 1013.9 hPa SSW 5.8 km/h 9.3 km/h 95% 2.3 mm CLR
09:35 12.8 °C 12.0 °C 1014.0 hPa SSW 5.8 km/h 5.6 km/h 95% 2.3 mm RA
09:40 12.8 °C 12.0 °C 1014.0 hPa SSW 4.7 km/h 5.6 km/h 95% 2.0 mm RA
09:45 12.8 °C 12.0 °C 1014.0 hPa SSW 4.7 km/h 3.7 km/h 95% 2.0 mm RA
09:50 12.9 °C 12.3 °C 1014.1 hPa SSW 2.9 km/h 3.7 km/h 96% 1.8 mm RA
09:55 12.9 °C 12.3 °C 1014.1 hPa SSW 2.9 km/h   96% 1.8 mm RA
10:00 12.9 °C 12.3 °C 1014.1 hPa Calm     96% 0.0 mm RA
10:05 13.0 °C 12.4 °C 1014.2 hPa Calm   1.9 km/h 96% 1.8 mm RA
10:10 13.1 °C 12.5 °C 1014.2 hPa Calm     96% 1.8 mm RA
10:15 13.1 °C 12.5 °C 1014.2 hPa Calm   3.7 km/h 96% 2.0 mm RA
10:20 13.2 °C 12.6 °C 1014.1 hPa Calm     96% 1.8 mm RA
10:25 13.2 °C 12.6 °C 1014.1 hPa Calm   3.7 km/h 96% 1.8 mm RA
10:30 13.2 °C 12.6 °C 1014.1 hPa Calm     96% 1.8 mm RA
10:35 13.2 °C 12.6 °C 1014.2 hPa Calm     96% 1.8 mm RA
10:40 13.2 °C 12.6 °C 1014.2 hPa Calm   5.6 km/h 96% 1.8 mm RA
10:45 13.2 °C 12.6 °C 1014.2 hPa Calm   3.7 km/h 96% 1.8 mm RA
10:50 13.2 °C 12.6 °C 1014.5 hPa SSW 2.9 km/h 2.3 km/h 96% 1.8 mm RA
10:55 13.1 °C 12.5 °C 1014.5 hPa SSW 2.9 km/h 5.6 km/h 96% 2.0 mm RA
11:00 13.2 °C 12.5 °C 1014.5 hPa SSW 1.6 km/h 4.8 km/h 96% 0.0 mm RA
11:05 13.2 °C 12.6 °C 1014.5 hPa SSW 2.3 km/h   96% 2.0 mm RA
11:10 13.2 °C 12.6 °C 1014.5 hPa Calm   1.9 km/h 96% 1.8 mm RA
11:15 13.3 °C 12.7 °C 1014.5 hPa Calm   3.7 km/h 96% 1.8 mm RA
11:20 13.3 °C 12.7 °C 1014.4 hPa SSW 2.3 km/h 3.7 km/h 96% 1.8 mm RA
11:25 13.2 °C 12.6 °C 1014.4 hPa SSW 2.3 km/h 3.7 km/h 96% 1.8 mm RA
11:30 13.3 °C 12.7 °C 1014.4 hPa SSW 2.3 km/h 5.6 km/h 96% 1.8 mm RA
11:35 13.3 °C 12.7 °C 1014.5 hPa SSW 2.3 km/h 1.9 km/h 96% 1.8 mm RA
11:40 13.3 °C 12.7 °C 1014.5 hPa SSW 2.3 km/h   96% 1.8 mm RA
11:45 13.3 °C 12.7 °C 1014.5 hPa SSW 2.3 km/h   96% 2.0 mm RA
11:50 13.4 °C 12.8 °C 1014.5 hPa Calm     96% 2.0 mm RA
11:55 13.4 °C 12.8 °C 1014.5 hPa Calm     96% 1.8 mm RA
12:00 13.4 °C 12.8 °C 1014.5 hPa Calm     96% 0.0 mm RA
12:05 13.5 °C 12.9 °C 1014.4 hPa Calm     96% 1.8 mm RA
12:10 13.5 °C 12.9 °C 1014.4 hPa Calm   3.7 km/h 96% 1.8 mm RA
12:15 13.4 °C 12.8 °C 1014.4 hPa Calm   3.7 km/h 96% 2.0 mm RA
12:20 13.4 °C 12.8 °C 1014.4 hPa SSW 2.3 km/h 3.7 km/h 96% 1.8 mm RA
12:25 13.4 °C 12.6 °C 1014.4 hPa SSW 2.3 km/h 5.6 km/h 95% 2.0 mm RA
12:30 13.4 °C 12.8 °C 1014.4 hPa SSW 2.3 km/h 1.9 km/h 96% 1.8 mm RA
12:35 13.4 °C 12.8 °C 1014.4 hPa SSW 2.3 km/h 5.6 km/h 96% 1.5 mm
12:40 13.4 °C 12.8 °C 1014.4 hPa South 3.9 km/h 7.4 km/h 96% 1.8 mm RA
12:45 13.5 °C 12.9 °C 1014.4 hPa SSW 3.9 km/h 9.3 km/h 96% 1.3 mm RA
12:50 13.5 °C 12.9 °C 1014.3 hPa SW 5.0 km/h 9.5 km/h 96% 1.5 mm RA
12:55 13.4 °C 12.8 °C 1014.3 hPa SW 5.0 km/h 9.3 km/h 96% 1.3 mm RA
13:00 13.4 °C 12.8 °C 1014.3 hPa SW 8.0 km/h 9.7 km/h 96% 0.0 mm RA
13:05 13.4 °C 12.8 °C 1014.3 hPa SSW 6.4 km/h 9.3 km/h 96% 1.5 mm RA
13:10 13.4 °C 12.8 °C 1014.3 hPa SSW 6.4 km/h 8.4 km/h 96% 1.3 mm CLR
13:15 13.5 °C 12.9 °C 1014.3 hPa WSW 6.4 km/h 7.6 km/h 96% 1.0 mm
13:20 13.5 °C 12.9 °C 1014.2 hPa SW 5.0 km/h 7.4 km/h 96% 1.0 mm CLR
13:25 13.4 °C 12.6 °C 1014.2 hPa WSW 5.0 km/h 7.4 km/h 95% 1.0 mm CLR
13:30 13.5 °C 12.7 °C 1014.2 hPa WSW 3.9 km/h 5.6 km/h 95% 0.8 mm CLR
13:35 13.6 °C 13.0 °C 1014.0 hPa WSW 3.9 km/h 5.6 km/h 96% 0.8 mm CLR
13:40 13.6 °C 12.8 °C 1014.0 hPa WSW 3.9 km/h 3.7 km/h 95% 0.5 mm CLR
13:45 13.7 °C 12.9 °C 1014.0 hPa WSW 3.9 km/h 3.9 km/h 95% 0.5 mm CLR
13:50 13.8 °C 13.0 °C 1014.0 hPa ESE 2.3 km/h 7.4 km/h 95% 0.5 mm CLR
13:55 13.7 °C 12.9 °C 1014.0 hPa SE 2.3 km/h 11.1 km/h 95% 0.3 mm CLR
14:00 13.7 °C 12.9 °C 1014.0 hPa South 4.8 km/h 9.7 km/h 95% 0.0 mm
14:05 13.7 °C 12.9 °C 1013.8 hPa South 5.8 km/h 9.3 km/h 95% 0.0 mm CLR
14:10 13.6 °C 12.7 °C 1013.8 hPa South 5.0 km/h 7.4 km/h 94% 0.3 mm RA
14:15 13.6 °C 12.7 °C 1013.8 hPa South 5.0 km/h 5.6 km/h 94% 0.3 mm RA
14:20 13.7 °C 12.8 °C 1013.5 hPa South 3.9 km/h 3.7 km/h 94% 0.3 mm CLR
14:25 13.8 °C 13.0 °C 1013.5 hPa NW 3.9 km/h 5.0 km/h 95% 0.3 mm CLR
14:30 13.8 °C 12.8 °C 1013.5 hPa NW 3.2 km/h 7.4 km/h 94% 0.3 mm CLR
14:35 13.8 °C 12.8 °C 1013.3 hPa NW 3.2 km/h 5.6 km/h 94% 0.3 mm CLR
14:40 13.8 °C 12.8 °C 1013.3 hPa NNW 3.9 km/h 11.1 km/h 94% 0.3 mm CLR
14:45 13.8 °C 12.8 °C 1013.3 hPa NNW 3.9 km/h 5.6 km/h 94% 0.3 mm CLR
14:50 13.9 °C 12.8 °C 1013.4 hPa NNW 3.9 km/h 5.6 km/h 93% 0.3 mm CLR
14:55 13.9 °C 12.8 °C 1013.4 hPa NW 3.9 km/h 7.6 km/h 93% 0.3 mm CLR
15:00 13.9 °C 12.8 °C 1013.4 hPa NNW 3.2 km/h 9.7 km/h 93% 0.0 mm
15:05 14.0 °C 12.9 °C 1013.3 hPa NNE 3.9 km/h 5.6 km/h 93% 0.3 mm CLR
15:10 14.1 °C 13.0 °C 1013.3 hPa NE 5.0 km/h 3.7 km/h 93% 0.0 mm CLR
15:15 13.9 °C 12.4 °C 1013.3 hPa NNW 5.0 km/h 11.1 km/h 91% 0.0 mm CLR
15:20 13.8 °C 12.3 °C 1013.6 hPa NNW 5.0 km/h 9.3 km/h 91% 0.0 mm CLR
15:25 13.8 °C 12.3 °C 1013.6 hPa NNW 5.0 km/h 9.3 km/h 91% 0.0 mm CLR
15:30 13.8 °C 12.3 °C 1013.6 hPa WNW 5.0 km/h 7.6 km/h 91% 0.0 mm CLR
15:35 13.8 °C 12.3 °C 1013.7 hPa ENE 5.0 km/h 5.6 km/h 91% 0.0 mm CLR
15:40 13.7 °C 12.3 °C 1013.7 hPa NNW 5.0 km/h 7.4 km/h 91% 0.3 mm RA
15:45 13.6 °C 12.0 °C 1013.7 hPa NNW 5.0 km/h 11.1 km/h 90% 0.3 mm RA
15:50 13.6 °C 12.0 °C 1013.6 hPa NNW 6.4 km/h 5.6 km/h 90% 0.3 mm CLR
15:55 13.6 °C 12.0 °C 1013.6 hPa NNW 6.4 km/h 11.1 km/h 90% 0.3 mm CLR
16:00 13.5 °C 11.7 °C 1013.6 hPa NNW 4.8 km/h 11.3 km/h 89% 0.0 mm
16:05 13.4 °C 11.6 °C 1013.5 hPa NNW 5.0 km/h 11.1 km/h 89% 0.3 mm CLR
16:10 13.4 °C 11.8 °C 1013.5 hPa NNE 7.6 km/h 7.4 km/h 90% 0.3 mm CLR
16:15 13.5 °C 11.9 °C 1013.5 hPa NW 7.6 km/h 9.5 km/h 90% 0.3 mm CLR
16:20 13.5 °C 11.9 °C 1013.3 hPa NE 5.0 km/h 11.1 km/h 90% 0.3 mm CLR
16:25 13.5 °C 11.9 °C 1013.3 hPa North 5.0 km/h 9.3 km/h 90% 0.3 mm CLR
16:30 13.5 °C 11.9 °C 1013.3 hPa NE 4.7 km/h 14.8 km/h 90% 0.3 mm CLR
16:35 13.4 °C 11.8 °C 1013.2 hPa North 4.7 km/h 7.4 km/h 90% 0.5 mm RA
16:40 13.4 °C 11.9 °C 1013.2 hPa NE 5.8 km/h 8.4 km/h 91% 0.3 mm RA
16:45 13.3 °C 11.9 °C 1013.2 hPa NNE 5.8 km/h 9.3 km/h 91% 0.3 mm
16:50 13.2 °C 11.8 °C 1013.2 hPa NNE 5.8 km/h 9.3 km/h 91% 0.3 mm
16:55 13.1 °C 11.5 °C 1013.2 hPa NNE 5.8 km/h 14.0 km/h 90% 0.8 mm RA
17:00 13.1 °C 11.7 °C 1013.2 hPa NE 9.7 km/h 14.5 km/h 91% 0.0 mm RA
17:05 13.1 °C 11.7 °C 1013.4 hPa NE 9.5 km/h 7.4 km/h 91% 0.8 mm
17:10 13.1 °C 11.7 °C 1013.4 hPa ENE 5.8 km/h 7.4 km/h 91% 1.0 mm RA
17:15 13.2 °C 11.9 °C 1013.4 hPa NNE 5.8 km/h 5.8 km/h 92% 1.0 mm RA
17:20 13.2 °C 11.8 °C 1013.3 hPa NNE 3.2 km/h 3.7 km/h 91% 1.0 mm
17:25 13.2 °C 11.8 °C 1013.3 hPa NNE 3.2 km/h 3.7 km/h 91% 1.0 mm
17:30 13.2 °C 11.9 °C 1013.3 hPa NNE 2.3 km/h 7.4 km/h 92% 1.0 mm CLR
17:35 13.2 °C 11.8 °C 1013.4 hPa NNW 2.3 km/h 7.6 km/h 91% 1.0 mm CLR
17:40 13.3 °C 12.0 °C 1013.4 hPa WNW 5.0 km/h 11.1 km/h 92% 0.8 mm CLR
17:45 13.3 °C 12.0 °C 1013.4 hPa NNW 5.0 km/h 7.4 km/h 92% 0.8 mm CLR
17:50 13.3 °C 11.9 °C 1013.4 hPa NNW 6.9 km/h 11.1 km/h 91% 0.8 mm CLR
17:55 13.3 °C 11.9 °C 1013.4 hPa NW 6.9 km/h 10.3 km/h 91% 0.8 mm CLR
18:00 13.3 °C 11.8 °C 1013.4 hPa NNW 8.0 km/h 12.9 km/h 91% 0.0 mm
18:05 13.2 °C 11.8 °C 1013.6 hPa NNW 6.9 km/h 11.1 km/h 91% 0.3 mm CLR
18:10 13.2 °C 11.6 °C 1013.6 hPa NNW 5.8 km/h 9.3 km/h 90% 0.3 mm CLR
18:15 13.2 °C 11.6 °C 1013.6 hPa WNW 5.8 km/h 9.3 km/h 90% 0.0 mm CLR
18:20 13.2 °C 11.6 °C 1013.7 hPa NW 5.8 km/h 13.7 km/h 90% 0.0 mm CLR
18:25 13.2 °C 11.6 °C 1013.7 hPa WNW 5.8 km/h 9.3 km/h 90% 0.0 mm CLR
18:30 13.2 °C 11.6 °C 1013.7 hPa NNW 7.6 km/h 14.8 km/h 90% 0.0 mm CLR
18:35 13.2 °C 11.6 °C 1013.7 hPa NW 7.6 km/h 13.0 km/h 90% 0.0 mm CLR
18:40 13.2 °C 11.6 °C 1013.7 hPa WNW 8.7 km/h 11.1 km/h 90% 0.0 mm CLR
18:45 13.2 °C 11.6 °C 1013.7 hPa NW 8.7 km/h 11.1 km/h 90% 0.0 mm CLR
18:50 13.2 °C 11.4 °C 1013.8 hPa NW 6.9 km/h 11.1 km/h 89% 0.0 mm CLR
18:55 13.2 °C 11.4 °C 1013.8 hPa WNW 6.9 km/h 9.3 km/h 89% 0.0 mm CLR
19:00 13.2 °C 11.4 °C 1013.8 hPa NW 8.0 km/h 11.3 km/h 89% 0.0 mm CLR
19:05 13.2 °C 11.4 °C 1013.9 hPa WNW 6.4 km/h 7.4 km/h 89% 0.0 mm CLR
19:10 13.2 °C 11.4 °C 1013.9 hPa WNW 5.0 km/h 7.4 km/h 89% 0.0 mm CLR
19:15 13.2 °C 11.4 °C 1013.9 hPa WNW 5.0 km/h 5.6 km/h 89% 0.0 mm CLR
19:20 13.2 °C 11.4 °C 1014.0 hPa WNW 3.2 km/h 3.7 km/h 89% 0.0 mm CLR
19:25 13.3 °C 11.5 °C 1014.0 hPa NW 3.2 km/h 7.4 km/h 89% 0.0 mm CLR
19:30 13.3 °C 11.3 °C 1014.0 hPa WNW 3.2 km/h 7.4 km/h 88% 0.0 mm CLR
19:35 13.3 °C 11.3 °C 1013.9 hPa West 3.2 km/h 5.6 km/h 88% 0.0 mm CLR
19:40 13.3 °C 11.3 °C 1013.9 hPa West 4.7 km/h 7.4 km/h 88% 0.0 mm CLR
19:45 13.3 °C 11.3 °C 1013.9 hPa WSW 4.7 km/h 7.4 km/h 88% 0.0 mm CLR
19:50 13.3 °C 11.3 °C 1014.1 hPa WSW 3.9 km/h 7.4 km/h 88% 0.0 mm CLR
19:55 13.3 °C 11.3 °C 1014.1 hPa WSW 3.9 km/h 7.4 km/h 88% 0.0 mm CLR
20:00 13.4 °C 11.3 °C 1014.1 hPa WSW 3.2 km/h 8.0 km/h 87% 0.0 mm CLR
20:05 13.4 °C 11.3 °C 1014.1 hPa SW 4.7 km/h 7.4 km/h 87% 0.0 mm CLR
20:10 13.6 °C 11.5 °C 1014.1 hPa SW 5.8 km/h 8.4 km/h 87% 0.0 mm CLR
20:15 13.6 °C 11.5 °C 1014.1 hPa WSW 5.8 km/h 9.3 km/h 87% 0.0 mm CLR
20:20 13.6 °C 11.5 °C 1014.0 hPa West 6.4 km/h 9.3 km/h 87% 0.0 mm CLR
20:25 13.6 °C 11.5 °C 1014.0 hPa WSW 6.4 km/h 11.1 km/h 87% 0.0 mm CLR
20:30 13.6 °C 11.7 °C 1014.0 hPa West 7.6 km/h 7.4 km/h 88% 0.0 mm CLR
20:35 13.6 °C 11.7 °C 1013.9 hPa West 7.6 km/h 11.1 km/h 88% 0.0 mm CLR
20:40 13.6 °C 11.7 °C 1013.9 hPa West 6.4 km/h 7.4 km/h 88% 0.0 mm CLR
20:45 13.6 °C 11.8 °C 1013.9 hPa West 6.4 km/h 9.3 km/h 89% 0.0 mm CLR
20:50 13.5 °C 11.7 °C 1013.6 hPa NW 6.4 km/h 20.4 km/h 89% 0.0 mm CLR
20:55 13.4 °C 11.6 °C 1013.6 hPa West 6.4 km/h 13.0 km/h 89% 0.0 mm CLR
21:00 13.4 °C 11.6 °C 1013.6 hPa West 9.7 km/h 20.9 km/h 89% 0.0 mm CLR
21:05 13.4 °C 11.6 °C 1013.8 hPa WNW 8.7 km/h 13.0 km/h 89% 0.0 mm CLR
21:10 13.4 °C 11.6 °C 1013.8 hPa West 8.4 km/h 11.1 km/h 89% 0.0 mm CLR
21:15 13.4 °C 11.6 °C 1013.8 hPa WSW 8.4 km/h 9.3 km/h 89% 0.0 mm CLR
21:20 13.4 °C 11.6 °C 1014.3 hPa West 5.8 km/h 3.7 km/h 89% 0.0 mm CLR
21:25 13.5 °C 11.7 °C 1014.3 hPa West 5.8 km/h 7.4 km/h 89% 0.0 mm CLR
21:30 13.5 °C 11.7 °C 1014.3 hPa WSW 3.9 km/h 7.4 km/h 89% 0.0 mm CLR
21:35 13.5 °C 11.7 °C 1014.4 hPa WSW 3.9 km/h 9.3 km/h 89% 0.0 mm CLR
21:40 13.5 °C 11.7 °C 1014.4 hPa WSW 4.7 km/h 7.4 km/h 89% 0.0 mm CLR
21:45 13.5 °C 11.7 °C 1014.4 hPa WSW 4.7 km/h 7.4 km/h 89% 0.0 mm CLR
21:50 13.6 °C 11.8 °C 1014.4 hPa SW 3.9 km/h 9.3 km/h 89% 0.3 mm RA
21:55 13.6 °C 11.8 °C 1014.4 hPa SSW 3.9 km/h 9.3 km/h 89% 0.3 mm RA
22:00 13.6 °C 11.8 °C 1014.4 hPa WSW 4.8 km/h 9.7 km/h 89% 0.0 mm
22:05 13.5 °C 11.7 °C 1014.8 hPa SW 5.8 km/h 5.6 km/h 89% 0.3 mm
22:10 13.5 °C 11.7 °C 1014.8 hPa WSW 4.7 km/h 11.9 km/h 89% 0.3 mm CLR
22:15 13.4 °C 11.6 °C 1014.8 hPa West 4.7 km/h 7.6 km/h 89% 0.3 mm CLR
22:20 13.4 °C 11.6 °C 1014.8 hPa West 6.9 km/h 7.4 km/h 89% 0.3 mm CLR
22:25 13.4 °C 11.6 °C 1014.8 hPa West 6.9 km/h 17.2 km/h 89% 0.3 mm CLR
22:30 13.3 °C 11.5 °C 1014.8 hPa West 7.6 km/h 9.3 km/h 89% 0.5 mm RA
22:35 13.2 °C 11.4 °C 1014.8 hPa West 7.6 km/h 13.0 km/h 89% 0.5 mm RA
22:40 13.1 °C 11.3 °C 1014.8 hPa West 9.5 km/h 16.7 km/h 89% 0.5 mm CLR
22:45 13.0 °C 11.4 °C 1014.8 hPa West 9.5 km/h 9.3 km/h 90% 0.8 mm RA
22:50 12.9 °C 11.3 °C 1015.0 hPa WSW 8.7 km/h 9.3 km/h 90% 0.8 mm RA
22:55 12.8 °C 11.2 °C 1015.0 hPa West 8.7 km/h 16.7 km/h 90% 1.0 mm RA
23:00 12.7 °C 11.1 °C 1015.0 hPa West 9.7 km/h 16.1 km/h 90% 0.0 mm RA
23:05 12.6 °C 11.2 °C 1015.0 hPa West 8.7 km/h 20.4 km/h 91% 2.5 mm RA
23:10 12.4 °C 11.1 °C 1015.0 hPa WNW 11.9 km/h 16.7 km/h 92% 3.0 mm RA
23:15 12.3 °C 11.1 °C 1015.0 hPa WNW 11.9 km/h 11.1 km/h 92% 3.3 mm RA
23:20 12.3 °C 11.1 °C 1014.7 hPa West 10.3 km/h 14.0 km/h 92% 3.6 mm RA
23:25 12.2 °C 11.1 °C 1014.7 hPa West 10.3 km/h 13.0 km/h 93% 4.3 mm RA
23:30 12.2 °C 11.1 °C 1014.7 hPa WSW 9.5 km/h 14.8 km/h 93% 5.1 mm RA
23:35 12.2 °C 11.1 °C 1014.7 hPa SW 9.5 km/h 13.0 km/h 93% 5.6 mm RA
23:40 12.1 °C 11.0 °C 1014.7 hPa West 9.5 km/h 18.5 km/h 93% 6.1 mm RA
23:45 12.1 °C 11.0 °C 1014.7 hPa WNW 9.5 km/h 16.7 km/h 93% 7.1 mm RA
23:50 12.1 °C 11.0 °C 1014.6 hPa West 12.2 km/h 14.8 km/h 93% 7.6 mm RA
23:55 12.1 °C 11.2 °C 1014.6 hPa SW 12.2 km/h 9.3 km/h 94% 8.6 mm RA
Murcia-Puente Tocinos, España
Compliments of Weather Underground - 2.75 mb

La estación de MeteoMurcia.com, publica sus datos en los siguientes proyectos:

Weather Underground PWS IMURCIAP2 Meteoclimatic www.awekas.at

W3Counter
Web Analytics